Location: Grieser Field
(39.7333°N, 81.7975°W)
Time: 01:10:41
(UTC-04:00)

Meteor 2-1 Rocket - Visible Passes

Search period start: 23 October 2014 00:00
Search period end: 02 November 2014 00:00
Orbit: 829 x 909 km, 81.3° (Epoch: 22 October)

Date Brightness Start Highest point End Pass type
(mag) Time Alt. Az. Time Alt. Az. Time Alt. Az.
23 Oct 7.2 19:16:23 10° W 19:18:26 12° WNW 19:20:29 10° NW visible
24 Oct 7.2 19:10:01 10° W 19:11:53 12° WNW 19:13:45 10° NW visible
25 Oct 7.2 19:03:41 10° W 19:05:20 11° WNW 19:06:58 10° NW visible
